AirNav   Textron
 
 854 users online  

FA60 Vince's Condominium Association Airport
Lake Placid, Florida, USA

GOING TO LAKE PLACID?


FAA INFORMATION EFFECTIVE 14 SEPTEMBER 2017

Location

FAA Identifier: FA60
Lat/Long: 27-14-20.1680N / 081-23-09.2620W
27-14.336133N / 081-23.154367W
27.2389356 / -81.3859061
(estimated)
Elevation: 115 ft. / 35 m (estimated)
Variation: 02W (1985)
From city: 3 miles S of LAKE PLACID, FL
Time zone: UTC -4 (UTC -5 during Standard Time)
Zip code: 33852

Airport Operations

Airport use: Private use. Permission required prior to landing
Control tower: no
ARTCC: MIAMI CENTER
FSS: SAINT PETERSBURG FLIGHT SERVICE STATION
Attendance: DAYLIGHT HOURS
Wind indicator: yes
Segmented circle: no

Airport Communications

WX AWOS-3 at SEF (13 nm N): 119.475 (863-655-6424)

Nearby radio navigation aids

VOR radial/distance  VOR name  Freq  Var
LBVr360/24.6LA BELLE VORTAC110.4001E
PGDr065/(37.7)PUNTA GORDA VOR110.2006W

Airport Services

Airframe service: MAJOR
Powerplant service: MINOR

Runway Information

Runway 9/27

Dimensions: 3000 x 75 ft. / 914 x 23 m
Surface: turf
RUNWAY 9  RUNWAY 27
Traffic pattern: leftleft

Airport Ownership and Management from official FAA records

Ownership: Privately-owned
Owner: VINCE'S ARPT CONDOMINIUM ASS'N
3950 PLACID VIEW DRIVE
LAKE PLACID, FL 33852
Phone 863-465-3555
Manager: FRED ARCH
8840 PLACID LAKES BLVD
LAKE PLACID, FL 33852
Phone (863) 414-0840

Airport Operational Statistics

Aircraft based on the field: 9
Single engine airplanes: 8
Ultralights: 1
    

Instrument Procedures

There are no published instrument procedures at FA60.

Some nearby airports with instrument procedures:

KSEF - Sebring Regional Airport (13 nm N)
KAVO - Avon Park Executive Airport (22 nm N)
X06 - Arcadia Municipal Airport (24 nm W)
KOBE - Okeechobee County Airport (29 nm E)
X14 - La Belle Municipal Airport (30 nm S)
 
Loc | Ops | Rwys | IFR | FBO | Links
Com | Nav | Svcs | Stats | Notes

Reliance Aviation
AirBoss

 
Area around FA60 (Vince's Condominium Association Airport)
 
Road maps at: MapQuest Bing Google
 
Aerial photo
No photo
 
Sectional chart

 
Airport distance calculator
Flying to Vince's Condominium Association Airport? Find the distance to fly.

From to FA60

Sunrise and sunset
Times for 23-Sep-2017
 Local
(UTC-4)
 Zulu
(UTC)
Morning civil twilight06:5210:52
Sunrise07:1511:15
Sunset19:2023:20
Evening civil twilight19:4423:44

Current date and time
Zulu (UTC)  23-Sep-2017 23:13:43
Local (UTC-4)  23-Sep-2017 19:13:43
 
METAR
KSEF 
13nm N 
232255Z AUTO 06007KT 10SM CLR 27/23 A2985 RMK AO2 LTG DSNT S T02650227
TAF
KPGD 
38nm SW 
232057Z 2321/2418 04010KT P6SM VCTS SCT030CB BKN050 TEMPO 2321/2322 2SM TSRA BKN025CB FM240100 06005KT P6SM SCT100 FM241600 07007KT P6SM SCT035 SCT250
KRSW 
47nm SW 
231850Z 2319/2418 09008KT P6SM VCTS SCT035CB FM240100 06005KT P6SM SCT100 FM241600 08007KT P6SM SCT035 SCT250
KFMY 
47nm SW 
231926Z 2319/2418 10009KT P6SM VCTS SCT035CB BKN090 TEMPO 2319/2320 2SM TSRA BKN035CB FM240100 06005KT P6SM SCT100 FM241600 08007KT P6SM SCT035 SCT250
NOTAMs
Click for the latest NOTAMs
NOTAMs are issued by the DoD/FAA and will open in a separate window not controlled by AirNav.

 

 
 

Would you like to see your business listed on this page?

 If your business provides an interesting product or service to pilots, flight crews, aircraft, or users of the Vince's Condominium Association Airport, you should consider listing it here.  To start the listing process, click on the button below
 
Add a business
 

Other Pages about Vince's Condominium Association Airport

Update a link
 
Copyright © AirNav, LLC. All rights reserved. Privacy Policy  Contact